Theta_e
302 296 293 297 298 298 297 294 296 298 303 300 299 299 302 303 296 296 297 297 303 311 319 321 322 325 322 323 323 325 325 326 326 324 323 323 322 322 321 323 323 322 323 321
297 293 295 296 296 295 295 295 295 299 301 299 297 298 301 303 303 298 299 298 297 301 309 316 320 321 322 321 322 324 325 326 326 327 327 326 325 323 325 323 323 324 323 323
294 296 298 296 293 292 292 294 295 296 298 297 296 294 297 303 304 306 303 302 302 300 301 309 316 319 322 321 321 322 324 325 326 326 327 321 322 318 319 321 323 323 323 322
295 298 296 294 294 294 290 295 295 295 294 290 296 288 294 299 302 304 304 304 304 301 302 304 311 316 320 321 323 323 323 324 325 326 324 323 323 321 322 323 323 324 323 323
291 294 294 293 292 296 293 296 295 296 293 290 291 288 289 298 297 301 304 304 304 303 304 302 307 314 319 321 322 322 322 324 324 325 325 323 322 323 322 320 320 321 321 322
289 292 294 294 296 297 297 295 293 292 290 283 290 289 290 293 296 298 302 305 305 303 302 302 306 311 315 319 321 322 321 322 323 324 324 323 322 322 320 319 320 320 321 321
289 291 292 293 291 292 296 292 284 281 281 282 285 288 291 295 295 296 300 301 301 302 302 300 302 306 312 315 318 321 321 320 321 322 322 323 323 322 321 319 320 319 319 317
280 276 288 292 292 291 292 292 285 278 278 280 283 284 290 296 300 301 298 298 299 298 300 299 301 305 310 314 317 320 320 321 320 321 321 322 323 323 322 322 321 321 321 321
280 280 288 292 293 294 289 287 293 286 280 279 280 283 290 292 292 294 297 299 299 299 297 298 299 304 309 313 316 318 320 321 322 321 322 322 322 322 322 322 322 322 322 321
285 281 287 290 294 295 292 293 286 287 278 278 282 280 286 288 290 293 293 295 298 297 295 297 298 302 308 312 315 317 319 320 321 323 323 323 323 323 323 321 320 321 321 322
288 286 284 290 289 289 289 288 290 290 286 281 278 283 290 293 295 296 294 294 295 297 294 296 297 300 306 310 313 315 316 318 319 320 321 322 322 322 323 320 321 322 322 323
289 285 278 284 291 292 293 290 290 284 281 284 279 285 290 288 288 290 290 290 291 294 295 293 293 294 301 306 309 312 315 316 317 318 319 319 318 317 318 319 315 317 318 315
290 285 278 281 286 289 287 290 292 291 288 284 281 285 291 287 285 287 287 289 290 290 292 292 292 294 296 301 304 308 310 313 310 310 312 309 310 312 312 310 306 305 307 305
293 286 283 277 278 284 283 287 290 289 285 285 286 288 293 287 285 287 287 288 289 288 290 292 294 295 295 297 300 301 301 303 303 307 308 307 306 307 305 302 301 300 301 301
286 278 281 282 284 283 281 284 287 287 288 286 289 289 293 295 296 297 289 288 288 290 290 293 295 295 296 297 298 298 299 300 302 305 305 304 301 301 300 298 298 297 297 296
286 272 281 279 282 282 280 281 281 287 289 289 290 290 297 297 296 296 291 289 288 290 292 293 295 296 296 297 297 298 298 298 301 302 301 298 298 297 295 295 293 292 291 291
282 275 273 269 280 280 274 279 282 284 290 290 286 291 296 296 297 297 296 292 290 290 293 294 295 296 297 298 297 297 298 297 298 297 296 296 294 293 292 290 290 289 289 288
279 277 276 269 268 268 279 288 289 287 289 292 292 294 296 297 299 298 295 293 292 291 292 295 296 297 296 297 296 296 295 296 294 292 293 292 292 291 289 290 289 287 287 288
284 280 270 266 260 273 278 281 281 282 284 291 292 294 295 298 295 296 299 296 298 299 293 295 297 297 296 297 297 295 292 292 291 291 292 291 293 291 289 289 288 286 286 285
285 285 278 260 261 263 279 282 286 287 279 289 292 294 294 294 290 295 302 300 297 295 292 293 295 294 295 295 295 293 292 292 293 292 291 291 290 290 289 288 286 284 284 282
279 279 276 276 274 274 281 285 291 280 282 290 293 295 295 293 296 300 302 301 303 297 292 293 294 294 295 293 294 293 291 293 292 288 287 286 287 288 288 285 282 282 279 281
277 275 277 278 275 271 284 284 284 289 290 289 293 295 296 298 299 300 301 300 296 292 291 291 290 289 290 292 294 292 291 290 288 287 286 285 284 283 283 283 281 279 279 278
274 280 275 278 277 284 286 288 291 291 291 291 290 293 294 296 297 299 300 299 293 290 288 288 290 288 288 290 293 291 289 287 286 286 285 283 281 281 282 281 279 278 277 277
279 283 280 280 283 284 288 291 292 291 290 291 291 287 289 290 292 292 295 298 296 286 286 284 287 286 284 288 288 290 286 286 287 285 283 282 280 278 279 280 280 279 278 276
281 282 282 281 284 285 286 288 291 292 289 287 288 288 288 287 287 287 289 291 295 286 283 286 287 287 284 284 284 285 285 287 286 283 281 281 280 279 277 277 279 278 275 278
284 282 280 279 285 286 287 290 292 289 288 288 289 290 292 285 286 286 286 284 283 284 283 284 283 283 281 282 281 283 285 286 283 280 280 279 278 278 278 278 277 283 282 284
Wind_Speed
3 4 10 10 6 1 2 5 6 4 7 4 9 11 19 14 8 10 10 9 13 16 22 14 16 15 11 13 14 16 16 15 11 8 9 8 9 6 5 7 9 8 8 8
4 14 7 6 4 5 4 3 4 6 8 3 7 14 13 13 12 12 16 13 12 14 15 13 16 16 16 18 18 17 17 17 15 11 9 8 7 5 7 5 6 9 8 8
8 3 11 9 6 7 6 13 9 5 4 2 5 18 12 16 15 17 16 16 16 17 18 15 15 18 20 20 20 19 20 19 17 16 9 3 3 2 3 5 7 8 8 8
9 5 13 8 11 10 12 6 3 3 2 5 4 16 11 9 19 21 21 21 20 18 18 18 17 17 19 21 18 20 18 19 16 16 13 16 13 13 11 10 8 8 10 10
5 8 9 12 5 9 6 5 9 8 9 1 7 8 6 15 24 20 20 24 24 25 22 19 19 21 20 19 19 18 18 17 16 16 17 14 12 10 6 5 8 10 8 11
5 2 5 8 8 14 7 4 4 3 4 8 13 11 21 15 21 9 15 22 22 21 20 19 19 17 15 16 16 16 17 17 17 18 18 18 17 13 9 8 8 7 7 7
3 5 0 1 5 2 7 6 5 5 7 10 4 13 30 10 9 8 13 16 16 18 18 17 18 16 17 17 17 15 18 19 19 19 19 18 18 16 14 11 9 8 6 4
10 5 10 6 8 3 16 17 4 6 6 6 2 12 15 11 14 15 12 11 9 11 13 16 19 19 18 18 20 20 19 18 18 19 20 18 17 11 12 11 9 8 8 7
7 7 1 5 6 11 7 12 17 9 0 1 5 11 13 10 12 10 13 14 17 15 13 15 15 16 17 17 21 22 20 19 18 20 17 17 15 15 12 11 9 8 8 7
2 2 3 5 4 4 14 1 5 9 12 14 9 9 15 4 7 11 16 19 16 10 10 12 13 17 17 17 18 19 20 21 18 19 16 14 15 14 11 9 11 10 9 9
5 4 2 5 11 16 7 6 9 3 5 7 9 13 8 15 17 18 11 11 9 9 11 11 11 14 15 14 15 17 17 17 16 16 16 14 13 13 12 11 11 11 8 9
13 3 8 13 5 4 12 22 12 5 9 5 2 23 7 8 9 8 13 10 11 9 10 9 9 8 8 11 13 16 16 15 16 15 14 14 11 10 11 11 9 8 9 6
11 8 7 3 3 2 7 13 19 17 11 19 11 24 2 9 7 10 12 9 12 11 9 7 7 11 12 11 11 12 12 14 11 11 11 8 9 10 10 9 7 7 7 6
6 4 5 11 2 3 5 13 17 17 13 20 16 34 22 8 8 9 10 11 9 8 8 4 3 7 5 8 11 10 9 8 9 10 11 11 11 10 9 8 8 7 7 7
5 2 0 7 7 6 8 14 18 23 20 15 29 26 28 19 20 19 7 9 10 10 7 7 7 7 7 6 6 7 7 8 9 11 11 11 9 9 9 8 8 7 7 6
7 4 7 7 9 6 8 16 19 25 30 26 34 30 34 12 12 16 14 9 12 13 10 10 9 7 7 8 6 6 7 8 9 10 9 9 10 10 9 9 8 8 7 7
7 4 3 7 6 6 8 12 15 16 27 28 30 39 31 25 26 25 23 15 14 15 13 10 11 10 7 8 8 7 7 8 8 9 9 10 10 10 9 8 8 7 7 6
7 6 4 7 1 7 11 11 11 14 23 26 31 34 28 26 24 17 15 13 14 14 13 11 9 9 8 7 6 8 8 7 7 8 9 9 10 10 9 9 8 7 5 6
9 5 3 4 5 9 10 8 7 10 25 23 29 36 37 27 10 19 19 17 20 18 14 11 9 9 10 11 10 11 8 8 9 10 11 11 11 11 10 9 8 5 5 3
11 11 6 3 5 10 15 7 10 8 22 26 27 38 37 11 16 29 29 16 14 11 6 8 8 6 11 10 11 12 11 11 11 11 11 11 10 11 10 9 8 4 4 4
6 5 15 14 9 10 7 8 6 8 17 4 14 27 26 19 30 37 19 17 15 14 12 9 12 13 13 13 13 12 12 15 10 8 9 10 10 11 10 9 3 6 6 7
11 9 9 8 8 17 9 2 11 8 9 14 24 16 17 26 32 31 26 20 13 11 11 13 11 9 9 14 14 14 13 8 9 10 10 9 8 7 8 10 6 7 8 7
10 12 9 15 11 6 4 8 10 9 16 12 15 21 14 17 20 21 20 19 13 10 7 7 11 12 11 14 14 15 10 12 11 11 10 8 8 7 8 10 9 7 7 6
8 7 14 12 23 20 21 21 24 13 15 16 15 10 11 17 12 14 14 18 15 7 7 2 8 10 8 11 8 10 14 13 13 12 12 10 10 8 7 6 6 7 7 5
10 9 18 16 17 14 16 13 22 20 8 10 13 14 15 10 15 10 13 13 14 9 6 10 9 8 8 9 10 13 14 15 13 11 10 10 8 9 7 5 5 5 3 4
12 20 12 18 9 16 18 10 12 13 10 7 9 20 20 7 11 9 13 6 3 7 8 9 8 11 9 9 11 11 13 15 15 12 9 8 8 7 7 7 6 8 9 10
Wind_Direction
172 173 210 189 217 358 97 210 232 220 239 258 250 247 251 248 234 246 244 217 220 223 229 215 215 210 200 198 194 196 194 193 184 186 188 198 205 201 204 212 205 202 204 204
149 226 179 179 189 251 252 233 254 305 281 252 275 263 258 256 249 227 244 239 223 231 236 211 208 202 201 199 201 198 201 196 195 198 198 202 190 209 213 204 209 207 203 200
189 143 162 157 169 205 235 229 231 246 341 272 323 275 248 259 243 249 248 243 237 216 231 225 208 203 206 204 201 201 201 198 198 198 189 136 128 114 184 210 215 210 202 199
232 202 168 173 204 172 234 191 212 217 124 253 116 283 238 248 249 230 236 237 237 224 227 223 208 211 207 210 203 205 198 198 196 191 186 198 207 215 218 218 212 208 198 208
188 178 171 208 195 163 242 181 208 218 222 350 224 272 284 210 251 236 226 235 230 230 228 215 207 211 208 204 201 199 198 198 195 189 193 194 203 210 206 191 186 202 199 204
178 266 192 206 180 192 164 144 47 13 169 229 236 208 263 223 243 237 219 235 231 230 227 216 211 208 208 204 199 193 191 198 193 192 195 198 203 202 199 192 199 202 205 204
79 190 157 245 132 182 185 162 225 214 224 239 234 202 251 287 275 232 225 238 233 229 227 213 203 197 199 193 193 189 190 198 195 194 195 200 205 203 204 197 199 189 196 188
191 282 174 173 207 139 212 208 210 233 214 242 137 218 250 237 261 244 237 247 251 226 219 214 211 204 197 192 192 191 191 197 193 195 199 200 205 207 210 202 196 198 200 199
172 241 159 174 153 166 169 231 238 271 276 221 214 274 289 247 263 256 250 250 247 242 218 213 207 200 197 191 195 193 194 198 192 196 197 202 202 206 206 201 194 198 195 192
192 238 196 165 96 236 219 55 198 202 246 252 232 250 248 313 259 253 247 247 252 241 230 219 210 203 201 195 195 194 196 194 194 194 198 202 202 201 198 179 190 197 196 197
153 170 130 132 204 196 180 203 233 245 204 225 253 252 208 236 233 248 255 255 252 232 225 227 219 215 201 193 189 191 193 192 192 193 194 196 200 194 188 186 196 197 192 191
192 186 240 226 150 253 256 225 214 216 211 239 311 266 192 225 253 244 261 263 268 233 219 203 205 200 194 189 184 188 188 189 193 192 190 196 188 174 180 190 178 172 185 171
160 211 230 190 206 175 245 238 241 254 271 261 250 261 266 222 252 260 270 269 275 267 232 195 187 206 201 196 192 183 181 188 179 170 172 163 169 174 181 171 154 147 142 142
191 186 207 235 128 35 225 224 227 240 238 240 236 262 249 281 272 287 272 276 270 266 261 204 254 219 223 203 192 182 175 168 158 162 164 164 165 165 156 143 143 143 139 141
132 173 145 277 229 275 331 284 237 225 234 233 243 248 258 252 276 288 303 311 292 267 246 245 204 227 187 183 170 161 155 151 160 162 162 166 147 135 130 131 132 128 135 140
177 262 179 248 233 176 265 269 271 257 233 235 248 257 255 270 257 266 270 260 267 265 234 222 216 204 201 187 201 160 145 140 149 154 153 137 136 136 139 137 138 129 127 130
162 151 103 262 189 183 257 251 244 235 237 229 238 243 262 251 251 251 255 241 238 249 243 221 205 203 196 191 161 166 145 134 140 137 139 142 138 138 140 135 131 136 141 132
167 157 153 249 80 225 234 198 221 241 257 247 250 259 263 255 255 259 235 242 244 236 235 221 200 188 165 156 154 126 134 141 136 137 142 141 142 139 140 138 137 132 136 137
179 152 225 197 203 295 291 237 207 224 262 237 246 255 254 253 302 268 240 219 237 245 226 218 194 177 158 160 160 142 142 146 150 159 158 154 148 148 147 146 141 130 127 113
189 208 201 54 171 227 268 213 219 257 265 248 229 243 250 256 250 252 245 236 236 231 191 184 174 145 149 166 156 151 158 163 180 175 164 153 154 152 149 141 141 119 114 120
164 191 225 240 251 266 248 254 141 177 266 2 227 244 253 233 234 251 250 244 236 219 188 164 167 177 174 153 157 164 165 188 176 140 140 148 149 148 141 135 122 127 116 118
174 183 210 216 241 265 216 59 194 251 319 353 328 308 256 241 247 250 254 260 254 217 188 178 163 168 160 158 166 165 182 149 136 138 148 142 140 126 130 141 120 116 122 124
225 201 199 185 216 230 225 233 266 273 282 298 292 305 290 276 266 267 255 246 252 245 217 169 173 161 166 167 177 164 155 142 143 140 140 134 117 124 135 138 135 125 119 137
245 209 230 242 251 259 262 277 279 283 279 296 285 277 293 284 271 257 236 241 241 214 201 124 134 155 176 157 171 135 140 140 149 146 140 137 136 125 122 119 136 139 144 143
209 164 230 249 249 262 250 256 269 285 297 290 289 276 254 265 273 265 271 255 238 190 166 157 173 167 163 142 129 131 142 144 139 137 134 134 131 134 129 110 132 131 77 131
216 234 217 237 242 237 252 224 231 261 267 253 304 294 287 235 266 278 272 286 218 182 145 142 139 131 137 127 123 134 145 138 136 133 137 139 133 138 132 123 106 114 128 132